Weather History for Fort Campbell, KY

Change the Weather History Date:

Sunday, March 31, 2013

  Actual Average Record
Temperature  
Mean Temperature 54 °F -  
Max Temperature 59 °F 63 °F 80 °F (1998)
Min Temperature 47 °F 42 °F 28 °F (2003)
Degree Days  
Heating Degree Days 12    
Growing Degree Days 4 (Base 50)    
Moisture  
Dew Point 52 °F    
Average Humidity 98    
Maximum Humidity 100    
Minimum Humidity 67    
Precipitation  
Precipitation 0.02 in - - ()
Sea Level Pressure  
Sea Level Pressure 29.91 in    
Wind  
Wind Speed 9 mph (West)    
Max Wind Speed 16 mph    
Max Gust Speed -    
Visibility 9 miles    
Events      
Averages and records for this station are not official NWS values.
T = Trace of Precipitation, MM = Missing Value Source: NWS Daily Summary

Daily Weather History Graph

Daily Weather History Graph

Search for Another Location

Airport:

Trip Planner

Search our weather history database for the weather conditions in past years. The results will help you decide how hot, cold, wet, or windy it might be!

Date:

Astronomy

Mar. 31, 2013 Rise Set
Actual Time 6:37 AM CDT 7:11 PM CDT
Civil Twilight 6:11 AM CDT 7:37 PM CDT
Nautical Twilight 5:40 AM CDT 8:08 PM CDT
Astronomical Twilight 5:09 AM CDT 8:39 PM CDT
Moon No Moon Rise 9:31 AM CDT (3/31)
Length of Visible Light 13h 26m
Length of Day
12h 34m
Waning Gibbous, 77% of the Moon is Illuminated
Mar 31
Waning Gibbous
Apr 2
Last Quarter
Apr 10
New
Apr 18
First Quarter
Apr 25
Full

Hourly Weather History & Observations

Time (CDT) Temp. Dew Point Humidity Pressure Visibility Wind Dir Wind Speed Gust Speed Precip Events Conditions
12:05 AM 53.6 °F 53.6 °F 100% 29.91 in 10.0 mi SSW 9.2 mph - N/A   Overcast
12:09 AM 53.6 °F 53.6 °F 100% 29.91 in 10.0 mi SSW 12.7 mph - N/A   Overcast
12:22 AM 53.6 °F 53.6 °F 100% 29.91 in 9.0 mi SW 11.5 mph - N/A   Overcast
12:24 AM 53.6 °F 53.6 °F 100% 29.90 in 8.0 mi SW 12.7 mph - N/A   Light Drizzle
12:25 AM 53.6 °F 53.6 °F 100% 29.91 in 7.0 mi SW 12.7 mph - N/A   Light Drizzle
12:28 AM 53.6 °F 53.6 °F 100% 29.91 in 6.0 mi SW 12.7 mph - N/A   Light Drizzle
12:36 AM 53.6 °F 53.6 °F 100% 29.91 in 7.0 mi WSW 13.8 mph - N/A   Overcast
12:42 AM 53.6 °F 53.6 °F 100% 29.91 in 6.0 mi WSW 16.1 mph - N/A   Overcast
12:55 AM 53.8 °F 53.8 °F 100% 29.91 in 5.0 mi WSW 13.8 mph - 0.00 in   Overcast
1:19 AM 53.6 °F 53.6 °F 100% 29.91 in 8.0 mi WSW 11.5 mph - N/A   Overcast
1:22 AM 53.6 °F 53.6 °F 100% 29.91 in 9.0 mi WSW 11.5 mph - N/A   Overcast
1:53 AM 53.6 °F 53.6 °F 100% 29.91 in 10.0 mi West 15.0 mph - N/A   Overcast
1:55 AM 53.4 °F 53.4 °F 100% 29.91 in 10.0 mi West 12.7 mph - N/A   Overcast
2:46 AM 51.8 °F 51.8 °F 100% 29.90 in 10.0 mi West 11.5 mph - N/A   Overcast
2:53 AM 51.8 °F 51.8 °F 100% 29.90 in 10.0 mi West 12.7 mph - N/A   Overcast
2:55 AM 52.5 °F 52.5 °F 100% 29.90 in 10.0 mi West 12.7 mph - N/A   Overcast
3:07 AM 51.8 °F 51.8 °F 100% 29.90 in 10.0 mi West 12.7 mph - N/A   Overcast
3:17 AM 51.8 °F 51.8 °F 100% 29.89 in 10.0 mi West 10.4 mph - N/A   Overcast
3:38 AM 51.8 °F 51.8 °F 100% 29.88 in 10.0 mi West 8.1 mph - N/A   Overcast
3:45 AM 51.8 °F 51.8 °F 100% 29.88 in 8.0 mi West 6.9 mph - N/A   Overcast
3:48 AM 51.8 °F 51.8 °F 100% 29.88 in 6.0 mi West 6.9 mph - N/A   Overcast
3:50 AM 51.8 °F 51.8 °F 100% 29.88 in 6.0 mi West 8.1 mph - N/A   Overcast
3:55 AM 52.2 °F 52.2 °F 100% 29.89 in 5.0 mi West 8.1 mph - N/A   Overcast
4:02 AM 51.8 °F 51.8 °F 100% 29.88 in 4.0 mi West 8.1 mph - N/A   Overcast
4:10 AM 51.8 °F 51.8 °F 100% 29.88 in 4.0 mi WNW 8.1 mph - N/A   Overcast
4:48 AM 51.8 °F 51.8 °F 100% 29.89 in 5.0 mi West 8.1 mph - N/A   Overcast
4:55 AM 51.6 °F 51.6 °F 100% 29.89 in 7.0 mi West 6.9 mph - N/A   Overcast
4:59 AM 51.8 °F 51.8 °F 100% 29.89 in 7.0 mi West 8.1 mph - N/A   Overcast
5:06 AM 51.8 °F 51.8 °F 100% 29.89 in 8.0 mi West 6.9 mph - N/A   Overcast
5:15 AM 51.8 °F 51.8 °F 100% 29.88 in 10.0 mi West 4.6 mph - N/A   Overcast
5:37 AM 51.8 °F 51.8 °F 100% 29.88 in 10.0 mi West 3.5 mph - N/A   Overcast
5:44 AM 51.8 °F 51.8 °F 100% 29.89 in 10.0 mi WNW 4.6 mph - N/A   Overcast
5:55 AM 51.4 °F 51.4 °F 100% 29.90 in 10.0 mi West 4.6 mph - N/A   Overcast
6:05 AM 51.8 °F 51.8 °F 100% 29.90 in 10.0 mi West 5.8 mph - N/A   Overcast
6:07 AM 51.8 °F 51.8 °F 100% 29.90 in 10.0 mi WSW 4.6 mph - N/A   Overcast
6:10 AM 51.8 °F 51.8 °F 100% 29.90 in 10.0 mi WSW 4.6 mph - N/A   Overcast
6:55 AM 51.6 °F 51.6 °F 100% 29.91 in 9.0 mi WSW 4.6 mph - N/A   Overcast
7:29 AM 51.8 °F 51.8 °F 100% 29.91 in 10.0 mi West 4.6 mph - N/A   Overcast
7:53 AM 51.8 °F 51.8 °F 100% 29.92 in 9.0 mi WSW 4.6 mph - N/A   Overcast
7:55 AM 52.0 °F 52.0 °F 100% 29.92 in 9.0 mi West 4.6 mph - N/A   Overcast
8:03 AM 51.8 °F 51.8 °F 100% 29.92 in 10.0 mi West 4.6 mph - N/A   Overcast
8:11 AM 51.8 °F 51.8 °F 100% 29.92 in 10.0 mi WSW 5.8 mph - N/A   Overcast
8:24 AM 51.8 °F 51.8 °F 100% 29.92 in 10.0 mi West 4.6 mph - N/A   Overcast
8:41 AM 51.8 °F 51.8 °F 100% 29.92 in 10.0 mi WSW 5.8 mph - N/A   Overcast
8:51 AM 53.6 °F 53.6 °F 100% 29.92 in 10.0 mi West 4.6 mph - N/A   Overcast
8:55 AM 52.9 °F 52.9 °F 100% 29.92 in 10.0 mi WNW 5.8 mph - N/A   Overcast
9:01 AM 53.6 °F 53.6 °F 100% 29.92 in 10.0 mi WNW 6.9 mph - N/A   Overcast
9:35 AM 51.8 °F 51.8 °F 100% 29.93 in 9.0 mi NW 6.9 mph - N/A   Overcast
9:55 AM 53.1 °F 53.1 °F 100% 29.92 in 10.0 mi WNW 5.8 mph - N/A   Overcast
10:02 AM 53.6 °F 53.6 °F 100% 29.92 in 10.0 mi WNW 6.9 mph - N/A   Overcast
10:14 AM 53.6 °F 53.6 °F 100% 29.92 in 10.0 mi WNW 8.1 mph - N/A   Overcast
10:19 AM 53.6 °F 53.6 °F 100% 29.93 in 10.0 mi NW 8.1 mph - N/A   Overcast
10:24 AM 53.6 °F 53.6 °F 100% 29.94 in 10.0 mi NW 6.9 mph - N/A   Overcast
10:36 AM 53.6 °F 53.6 °F 100% 29.94 in 10.0 mi NW 6.9 mph - N/A   Overcast
10:42 AM 53.6 °F 53.6 °F 100% 29.94 in 10.0 mi NW 9.2 mph - N/A   Overcast
10:44 AM 53.6 °F 53.6 °F 100% 29.94 in 10.0 mi NW 8.1 mph - N/A   Overcast
10:48 AM 53.6 °F 53.6 °F 100% 29.94 in 10.0 mi NW 6.9 mph - N/A   Overcast
10:51 AM 53.6 °F 53.6 °F 100% 29.94 in 10.0 mi NW 6.9 mph - N/A   Overcast
10:53 AM 53.6 °F 53.6 °F 100% 29.94 in 10.0 mi NW 9.2 mph - N/A   Overcast
10:55 AM 53.8 °F 53.8 °F 100% 29.94 in 10.0 mi NW 9.2 mph - N/A   Overcast
11:55 AM 54.0 °F 53.8 °F 99% 29.95 in 10.0 mi NNW 5.8 mph - N/A   Overcast
12:09 PM 53.6 °F 53.6 °F 100% 29.94 in 10.0 mi NW 5.8 mph - N/A   Mostly Cloudy
12:55 PM 55.2 °F 53.4 °F 94% 29.94 in 10.0 mi NW 4.6 mph - N/A   Partly Cloudy
12:58 PM 55.4 °F 53.6 °F 94% 29.94 in 10.0 mi NW 4.6 mph - N/A   Light Drizzle
1:50 PM 55.4 °F 55.4 °F 100% 29.89 in 10.0 mi South 8.1 mph - N/A   Mostly Cloudy
1:55 PM 55.4 °F 55.4 °F 100% 29.90 in 10.0 mi Variable 3.5 mph - 0.02 in   Mostly Cloudy
2:17 PM 55.4 °F 55.4 °F 100% 29.90 in 10.0 mi Calm Calm - N/A   Mostly Cloudy
2:34 PM 57.2 °F 53.6 °F 88% 29.90 in 10.0 mi SSW 3.5 mph - N/A   Mostly Cloudy
2:55 PM 57.2 °F 54.1 °F 89% 29.89 in 10.0 mi SSW 4.6 mph - N/A   Scattered Clouds
3:55 PM 58.6 °F 52.0 °F 79% 29.89 in 10.0 mi West 5.8 mph - N/A   Mostly Cloudy
4:55 PM 58.8 °F 49.6 °F 72% 29.90 in 10.0 mi West 6.9 mph - N/A   Mostly Cloudy
5:55 PM 59.7 °F 48.9 °F 67% 29.89 in 10.0 mi Variable 4.6 mph - N/A   Clear
6:55 PM 57.9 °F 47.1 °F 67% 29.89 in 10.0 mi West 3.5 mph - N/A   Clear
7:55 PM 54.0 °F 49.3 °F 84% 29.90 in 10.0 mi Calm Calm - N/A   Clear
8:55 PM 51.4 °F 50.7 °F 97% 29.91 in 10.0 mi South 3.5 mph - N/A   Clear
9:55 PM 49.8 °F 49.8 °F 100% 29.92 in 10.0 mi Calm Calm - N/A   Clear
10:55 PM 48.4 °F 48.4 °F 100% 29.92 in 10.0 mi SW 3.5 mph - N/A   Clear
11:55 PM 47.7 °F 47.7 °F 100% 29.92 in 10.0 mi SSW 4.6 mph - N/A   Clear